Weather History for KACY - October, 2013

Change the Weather History Date:

Wednesday, October 23, 2013

  Actual Average Record
Temperature  
Mean Temperature 46 °F 54 °F  
Max Temperature 51 °F 64 °F 79 °F (2007)
Min Temperature 40 °F 43 °F 27 °F (1969)
Degree Days  
Heating Degree Days 19 12  
Month to date heating degree days 126 194  
Since 1 July heating degree days 228 256  
Cooling Degree Days 0 0  
Month to date cooling degree days 36 16  
Year to date cooling degree days 1088 1050  
Moisture  
Dew Point 44 °F    
Average Humidity 83    
Maximum Humidity 100    
Minimum Humidity 66    
Precipitation  
Precipitation 0.55 in 0.11 in 3.11 in (1883)
Month to date precipitation 4.80 2.52  
Year to date precipitation 37.40 33.89  
Snow  
Snow 0.00 in 0.00 in 0.00 in (1903)
Month to date snowfall 0.0 0.0  
Since 1 July snowfall 0.0 0.0  
Since 1 September snowfall 0.0 0.0  
Snow Depth 0.00 in    
Sea Level Pressure  
Sea Level Pressure 29.72 in    
Wind  
Wind Speed 6 mph (NW)    
Max Wind Speed 12 mph    
Max Gust Speed 15 mph    
Visibility 8 miles    
Events Rain    
T = Trace of Precipitation, MM = Missing Value Source: NWS Daily Summary

Daily Weather History Graph

Daily Weather History Graph

Search for Another Location

Airport or City:

Trip Planner

Search our weather history database for the weather conditions in past years. The results will help you decide how hot, cold, wet, or windy it might be!

Date:

Astronomy

Oct. 23, 2013 Rise Set
Actual Time 7:16 AM EDT 6:07 PM EDT
Civil Twilight 6:49 AM EDT 6:35 PM EDT
Nautical Twilight 6:18 AM EDT 7:06 PM EDT
Astronomical Twilight 5:46 AM EDT 7:37 PM EDT
Moon 9:37 PM EDT (10/23) 11:31 AM EDT (10/23)
Length of Visible Light 11h 45m
Length of Day
10h 50m
Waning Gibbous, 79% of the Moon is Illuminated
Oct 23
Waning Gibbous
Oct 26
Last Quarter
Nov 3
New
Nov 10
First Quarter
Nov 17
Full

Hourly Weather History & Observations

Time (EDT) Temp. Windchill Dew Point Humidity Pressure Visibility Wind Dir Wind Speed Gust Speed Precip Events Conditions
12:54 AM 48.9 °F - 41.0 °F 74% 29.83 in 10.0 mi NNW 3.5 mph - N/A   Clear
1:54 AM 46.9 °F - 39.0 °F 74% 29.83 in 10.0 mi Calm Calm - N/A   Partly Cloudy
2:54 AM 48.0 °F - 37.9 °F 68% 29.81 in 10.0 mi Calm Calm - N/A   Mostly Cloudy
3:54 AM 46.9 °F - 37.9 °F 71% 29.78 in 10.0 mi NNW 4.6 mph - N/A   Overcast
4:54 AM 45.0 °F 40.6 °F 39.0 °F 80% 29.78 in 5.0 mi North 8.1 mph - 0.02 in Rain Light Rain
5:54 AM 45.0 °F 41.8 °F 41.0 °F 86% 29.77 in 10.0 mi North 5.8 mph - 0.00 in   Overcast
6:54 AM 44.1 °F 39.0 °F 42.1 °F 93% 29.77 in 4.0 mi NW 9.2 mph - 0.02 in Rain Rain
7:54 AM 45.0 °F 43.5 °F 44.1 °F 97% 29.77 in 4.0 mi North 3.5 mph - 0.10 in Rain Light Rain
8:54 AM 45.0 °F 41.8 °F 44.1 °F 97% 29.77 in 4.0 mi NW 5.8 mph - 0.06 in Rain Rain
9:54 AM 45.0 °F 43.5 °F 44.1 °F 97% 29.74 in 6.0 mi NNW 3.5 mph - 0.05 in Rain Light Rain
10:54 AM 46.0 °F - 45.0 °F 96% 29.71 in 3.0 mi Calm Calm - 0.06 in Rain Rain
11:54 AM 46.9 °F - 46.9 °F 100% 29.67 in 2.0 mi Calm Calm - 0.09 in Rain Rain
12:04 PM 48.0 °F - 46.0 °F 93% 29.66 in 5.0 mi East 8.1 mph - 0.01 in Rain Light Rain
12:40 PM 48.0 °F - 46.9 °F 96% 29.66 in 4.0 mi NW 6.9 mph - 0.02 in Rain Light Rain
12:54 PM 48.0 °F - 46.9 °F 96% 29.65 in 4.0 mi NW 8.1 mph - 0.04 in Rain Light Rain
1:54 PM 46.9 °F - 46.9 °F 100% 29.62 in 6.0 mi NW 5.8 mph - 0.06 in Rain Light Rain
2:52 PM 46.4 °F 42.9 °F 46.4 °F 100% 29.63 in 8.0 mi WNW 6.9 mph - 0.04 in Rain Light Rain
2:54 PM 48.0 °F - 46.9 °F 96% 29.63 in 8.0 mi NW 8.1 mph - 0.04 in Rain Light Rain
3:29 PM 48.9 °F - 48.0 °F 97% 29.63 in 10.0 mi WNW 10.4 mph - 0.01 in   Overcast
3:50 PM 50.0 °F - 48.2 °F 94% 29.64 in 10.0 mi NW 9.2 mph - 0.01 in   Overcast
3:54 PM 50.0 °F - 48.0 °F 93% 29.64 in 10.0 mi WNW 8.1 mph - 0.01 in   Overcast
4:54 PM 50.0 °F - 48.0 °F 93% 29.65 in 10.0 mi NNW 9.2 mph - N/A   Overcast
5:02 PM 50.0 °F - 46.9 °F 89% 29.66 in 10.0 mi NNW 6.9 mph - N/A   Mostly Cloudy
5:54 PM 48.9 °F - 46.9 °F 93% 29.68 in 10.0 mi WNW 4.6 mph - N/A   Mostly Cloudy
6:54 PM 48.0 °F - 46.9 °F 96% 29.72 in 10.0 mi WNW 6.9 mph - N/A   Overcast
7:54 PM 46.9 °F - 46.0 °F 97% 29.75 in 10.0 mi WNW 6.9 mph - N/A   Overcast
8:54 PM 46.0 °F 42.5 °F 41.0 °F 83% 29.77 in 10.0 mi WNW 6.9 mph - 0.00 in   Overcast
9:54 PM 44.1 °F 39.5 °F 37.9 °F 79% 29.79 in 10.0 mi West 8.1 mph - N/A   Clear
10:54 PM 42.1 °F 36.1 °F 37.0 °F 82% 29.81 in 10.0 mi WNW 10.4 mph - N/A   Clear
11:54 PM 41.0 °F 35.8 °F 37.0 °F 86% 29.83 in 10.0 mi West 8.1 mph - N/A   Clear